Tracking 25949 objects as of 8-Aug-2022
HD Live streaming from Space Station
objects crossing your sky now

COSMOS 1275 DEB

Track COSMOS 1275 DEB now!
10-day predictions


NORAD ID: 13020
Int'l Code: 1981-053ES
Perigee: 894.2 km
Apogee: 1,068.1 km
Inclination: 82.7 °
Period: 104.6 minutes
Semi major axis: 7352 km
RCS: 0.0175 m2 (small)
Launch date: June 4, 1981
Source: Commonwealth of Independent States (former USSR) (CIS)
Launch site: PLESETSK MISSILE AND SPACE COMPLEX (PKMTR)

Note: This is SATELLITE DEBRIS
aabbcc
Your satellite tracking list
Your tracking list is empty




NASA's NSSDC Master Catalog

Two Line Element Set (TLE):
1 13020U 81053ES  22220.30417410  .00000384  00000-0  35305-3 0  9995
2 13020  82.6895 228.9334 0118236 127.4219 248.9894 13.77148273 36280
Source of the keplerian elements: AFSPC